Regional Weather Roundup
Issued by NWS Portland, ME

Home | Current Version | Previous Version | Text Only | Print | Product List | Glossary On
Versions: 1 2 3 4 5 6 7 8 9 10 11 12 13 14 15 16 17 18 19 20 21 22 23 24 25 26 27 28 29 30 31 32 33 34 35 36 37 38 39 40 41 42 43 44 45 46 47 48 49 50
000
ASUS41 KGYX 270905
RWRGYX
WEATHER ROUNDUP FOR MAINE AND NEW HAMPSHIRE
NATIONAL WEATHER SERVICE GRAY ME
500 AM EDT WED AUG 27 2014

MEZ002-005-006-010-012-015-018-020-021-024-026-027-029-271000-
MAINE

CITY           SKY/WX    TMP DP  RH WIND       PRES   REMARKS
PORTLAND       CLEAR     67  63  87 SW6       29.93F
SANFORD        CLEAR     66  61  82 SW7       29.96S
BAR HARBOR     CLEAR     63  63 100 SW6       29.92F
WISCASSET      CLEAR     61  60  97 CALM      29.94F FOG
ROCKLAND       CLEAR     64  63  94 SW7       29.91F
FRYEBURG       CLEAR     61  59  93 CALM      29.94S
LEWISTONAUBURN CLEAR     61  55  82 CALM      29.93S
AUGUSTA        CLEAR     63  61  93 CALM      29.93S
WATERVILLE     PTCLDY    61  59  94 S3        29.89S
BANGOR         PTCLDY    63  60  90 S3        29.91F
GREENVILLE       N/A     65  59  81 CALM      29.92R
MILLINOCKET    MOCLDY    65  61  87 CALM      29.88F
HOULTON        MOCLDY    64  60  87 S7        29.85S
PRESQUE ISLE   MOCLDY    70  57  64 SW5       29.82S
FRENCHVILLE    CLOUDY    66  58  75 S6        29.80F
CARIBOU        MOCLDY    67  59  75 S3        29.82R
$$

NHZ002-005-008-009-011-012-014-271000-
NEW HAMPSHIRE

CITY           SKY/WX    TMP DP  RH WIND       PRES   REMARKS
PORTSMOUTH     MOCLDY    68  63  84 SW6       29.95S
ROCHESTER      CLEAR     65  62  90 CALM      29.96S
NASHUA         CLEAR     68  64  86 CALM      29.98F
MANCHESTER     PTCLDY    68  63  84 S6        29.96F
CONCORD        CLEAR     64  63  96 S6        29.97S
LACONIA        CLEAR     66  61  82 W6        29.95S
PLYMOUTH       FOG       57  57 100 CALM      29.97S VSB 1/2
BERLIN         PTCLDY    55  54  96 CALM      29.96S
WHITEFIELD     MOCLDY    57  54  89 CALM      29.97S
JAFFREY        PTCLDY    64  62  93 S7        30.02F
LEBANON        CLEAR     61  57  87 CALM      29.96F
MT WASHINGTON  FOG       54  54 100 W46G54      N/A  VSB 0
$$

VTZ005-007-008-271000-
VERMONT

CITY           SKY/WX    TMP DP  RH WIND       PRES   REMARKS
ST JOHNSBURY     N/A     59  57  93 MISG      29.94S
MONTPELIER     PTCLDY    64  58  80 S7        29.99S
BURLINGTON     CLOUDY    74  59  59 S8        29.92R
$$

MAZ007-012-024-CTZ003-RIZ002-NYZ038-NYZ072-271000-
SOUTHERN NEW ENGLAND AND NY

CITY           SKY/WX    TMP DP  RH WIND       PRES   REMARKS
BOSTON         CLEAR     68  58  70 SW13      29.98F
WORCESTER      CLEAR     64  60  87 W13       30.02F
NANTUCKET      FOG       60  60 100 W3        30.04R VSB 3/4
PROVIDENCE     CLEAR     65  59  81 W6        30.02F
HARTFORD       PTCLDY    65  62  90 S7        30.00F
ALBANY         MOCLDY    68  62  81 S5        29.99S
NEW YORK CITY  CLEAR     73  63  70 W5        30.02F
$$

ANZ081-ANZ082-ANZ150-NHZ014-MEZ023>029-271000-
COASTAL MARINE OBSERVATIONS

STATION/POSITION TIME  TEMP    WIND        PRES    WAVE
                       AIR SEA DIR/SP/G            HT/PER
                 (UTC) (F)     (DEG/KT/KT) (MB)    (FT/S)
MATINICUS ROCK   0800          230/ 17/ 18 1013.4F
PORTLAND WX BUOY 0850   65 62  220/ 10/ 12 1013.5R   4/ 5
WELLS            0800   69 60  260/  7/ 11 1013.2F
ISLE OF SHOALS   0800   68     230/ 17/ 17 1013.9F
JEFFREYS LEDGE   0821      66                N/A     4/ 7
CASHES LEDGE BUO 0850   69 67              1013.7F   5/ 5
$$

.............KEY..............
   WCI - WIND CHILL
   TC  - TEMPERATURE IN CELSIUS
   VSB - VISIBILITY IN MILES
   HX  - HEAT INDEX
   FAIR- INDICATES FEW OR NO CLOUDS BELOW 12,000 FT, WITH NO
         SIGNIFICANT WEATHER AND/OR OBSTRUCTIONS TO VISIBILITY.





USA.gov is the U.S. government's official web portal to all federal, state and local government web resources and services.